| time (UTC) | temp F | wind direction | speed MPH | gust MPH | rain 1hr in | rain 24hr in | rain mn in | humidity % | barometer mb |
| 20260903223404 | 102 | 308 | 3.0 | 12.0 | 0.00 | 0.00 | 0.00 | 27 | 1007.9 |
| 20260903221404 | 103 | 193 | 6.0 | 9.0 | 0.00 | 0.00 | 0.00 | 27 | 1008.2 |
| 20260903220404 | 104 | 204 | 5.0 | 7.0 | 0.00 | 0.00 | 0.00 | 28 | 1008.5 |
| 20260903214404 | 103 | 19 | 1.0 | 5.0 | 0.00 | 0.00 | 0.00 | 27 | 1008.8 |
| 20260903213403 | 102 | 205 | 4.0 | 8.0 | 0.00 | 0.00 | 0.00 | 30 | 1009.0 |
| 20260903211404 | 103 | 214 | 2.0 | 10.0 | 0.00 | 0.00 | 0.00 | 29 | 1009.3 |
| 20260903210405 | 102 | 213 | 3.0 | 8.0 | 0.00 | 0.00 | 0.00 | 30 | 1009.5 |
| 20260903204404 | 101 | 53 | 4.0 | 6.0 | 0.00 | 0.00 | 0.00 | 31 | 1009.7 |
| 20260903203406 | 102 | 194 | 3.0 | 9.0 | 0.00 | 0.00 | 0.00 | 31 | 1010.0 |
| 20260903201404 | 101 | 91 | 4.0 | 7.0 | 0.00 | 0.00 | 0.00 | 31 | 1010.1 |
| 20260903200404 | 102 | 184 | 1.0 | 12.0 | 0.00 | 0.00 | 0.00 | 32 | 1010.4 |
| 20260903194406 | 101 | 147 | 4.0 | 6.0 | 0.00 | 0.00 | 0.00 | 32 | 1010.6 |
| 20260903193404 | 100 | 242 | 3.0 | 8.0 | 0.00 | 0.00 | 0.00 | 32 | 1010.7 |
| 20260903190405 | 101 | 92 | 3.0 | 10.0 | 0.00 | 0.00 | 0.00 | 33 | 1011.2 |
| 20260903184404 | 99 | 108 | 2.0 | 5.0 | 0.00 | 0.00 | 0.00 | 34 | 1011.6 |
| 20260903183405 | 99 | 154 | 3.0 | 12.0 | 0.00 | 0.00 | 0.00 | 34 | 1011.8 |
| 20260903181405 | 98 | 140 | 4.0 | 5.0 | 0.00 | 0.00 | 0.00 | 36 | 1012.3 |
| 20260903180405 | 98 | 183 | 6.0 | 8.0 | 0.00 | 0.00 | 0.00 | 35 | 1012.4 |
| 20260903174403 | 96 | 129 | 5.0 | 8.0 | 0.00 | 0.00 | 0.00 | 40 | 1012.7 |
| 20260903171406 | 95 | 132 | 2.0 | 7.0 | 0.00 | 0.00 | 0.00 | 40 | 1012.6 |
| 20260903164404 | 93 | 88 | 3.0 | 7.0 | 0.00 | 0.00 | 0.00 | 46 | 1012.7 |
| 20260903161406 | 91 | 160 | 3.0 | 5.0 | 0.00 | 0.00 | 0.00 | 48 | 1012.8 |
| 20260903160406 | 90 | 231 | 2.0 | 9.0 | 0.00 | 0.00 | 0.00 | 52 | 1012.9 |
| 20260903151404 | 88 | 194 | 2.0 | 3.0 | 0.00 | 0.00 | 0.00 | 55 | 1013.1 |
| 20260903150403 | 88 | 186 | 1.0 | 8.0 | 0.00 | 0.00 | 0.00 | 55 | 1013.0 |
| 20260903144406 | 87 | 184 | 1.0 | 3.0 | 0.00 | 0.00 | 0.00 | 57 | 1013.0 |
| 20260903141404 | 83 | 229 | 2.0 | 6.0 | 0.00 | 0.00 | 0.00 | 63 | 1012.7 |
| 20260903140406 | 83 | 236 | 1.0 | 3.0 | 0.00 | 0.00 | 0.00 | 62 | 1012.6 |
| 20260903133404 | 83 | 238 | 2.0 | 3.0 | 0.00 | 0.00 | 0.00 | 60 | 1012.3 |
| 20260903131405 | 83 | 239 | 1.0 | 5.0 | 0.00 | 0.00 | 0.00 | 59 | 1012.1 |
| 20260903124404 | 84 | 244 | 1.0 | 3.0 | 0.00 | 0.00 | 0.00 | 57 | 1011.9 |
| 20260903123404 | 84 | 244 | 1.0 | 8.0 | 0.00 | 0.00 | 0.00 | 56 | 1011.6 |
| 20260903121404 | 84 | 200 | 1.0 | 2.0 | 0.00 | 0.00 | 0.00 | 56 | 1011.4 |
| 20260903120404 | 84 | 196 | 0.0 | 2.0 | 0.00 | 0.00 | 0.00 | 56 | 1011.5 |
| 20260903114404 | 85 | 194 | 0.0 | 6.0 | 0.00 | 0.00 | 0.00 | 56 | 1011.4 |
| 20260903111404 | 85 | 239 | 3.0 | 8.0 | 0.00 | 0.00 | 0.00 | 56 | 1011.2 |
| 20260903071405 | 87 | 5 | 0.0 | 1.0 | 0.00 | 0.00 | 0.00 | 30 | 1011.1 |
| 20260903063404 | 87 | 274 | 1.0 | 1.0 | 0.00 | 0.00 | 0.00 | 30 | 1010.8 |
| 20260903061404 | 87 | 274 | 0.0 | 0.0 | 0.00 | 0.00 | 0.00 | 29 | 1010.9 |
| 20260903054405 | 90 | 274 | 0.0 | 1.0 | 0.00 | 0.00 | 0.00 | 25 | 1010.6 |
| 20260903053404 | 90 | 274 | 0.0 | 1.0 | 0.00 | 0.00 | 0.00 | 24 | 1010.6 |
| 20260903050404 | 92 | 274 | 0.0 | 2.0 | 0.00 | 0.00 | 0.00 | 24 | 1010.7 |
| 20260903044405 | 94 | 274 | 3.0 | 3.0 | 0.00 | 0.00 | 0.00 | 23 | 1010.7 |
| 20260903043404 | 94 | 284 | 2.0 | 7.0 | 0.00 | 0.00 | 0.00 | 23 | 1010.7 |
| 20260903041407 | 94 | 266 | 3.0 | 3.0 | 0.00 | 0.00 | 0.00 | 25 | 1010.6 |
| 20260903034404 | 96 | 245 | 4.0 | 6.0 | 0.00 | 0.00 | 0.00 | 31 | 1010.2 |
| 20260903033404 | 96 | 269 | 4.0 | 7.0 | 0.00 | 0.00 | 0.00 | 29 | 1010.1 |
| 20260903031405 | 96 | 269 | 5.0 | 7.0 | 0.00 | 0.00 | 0.00 | 28 | 1010.0 |
| 20260903030404 | 97 | 288 | 5.0 | 8.0 | 0.00 | 0.00 | 0.00 | 27 | 1009.9 |
| 20260903024406 | 97 | 260 | 5.0 | 9.0 | 0.00 | 0.00 | 0.00 | 26 | 1009.8 |
| 20260903023405 | 98 | 273 | 4.0 | 10.0 | 0.00 | 0.00 | 0.00 | 26 | 1009.8 |